Location: A�t �Alizem
(31.2076°N, 8.7872°W)
Time: 05:48:24
(UTC+00:00)

Cosmos 1933 - Pass Details

Date: 27 November 2020
Orbit: 546 x 564 km, 82.5° (Epoch: 25 January)

Event Time Altitude Azimuth Distance (km) Brightness Sun altitude
Rises 18:09:57 0° 185° (S) 2,705 7.2 -8.2°
Reaches altitude 10° 18:12:05 10° 185° (S) 1,818 6.3 -8.6°
Maximum altitude 18:16:05 89° 116° (ESE) 557 3.3 -9.4°
Drops below altitude 10° 18:20:09 10° 6° (N) 1,840 5.7 -10.3°
Sets 18:22:20 0° 7° (N) 2,742 6.6 -10.7°
